Weather History for Ocala, FL

Change the Weather History Date:

Friday, June 21, 2013

  Actual Average Record
Temperature  
Mean Temperature 79 °F -  
Max Temperature 89 °F 88 °F 98 °F (2011)
Min Temperature 69 °F 68 °F 66 °F (1997)
Cooling Degree Days 14    
Growing Degree Days 29 (Base 50)    
Moisture  
Dew Point 67 °F    
Average Humidity 82    
Maximum Humidity 89    
Minimum Humidity 49    
Precipitation  
Precipitation 0.05 in - - ()
Sea Level Pressure  
Sea Level Pressure 30.10 in    
Wind  
Wind Speed 1 mph (NE)    
Max Wind Speed 16 mph    
Max Gust Speed 24 mph    
Visibility 8 miles    
Events Fog , Rain , Thunderstorm    
Averages and records for this station are not official NWS values.
T = Trace of Precipitation, MM = Missing Value Source: NWS Daily Summary

Daily Weather History Graph

Daily Weather History Graph

Search for Another Location

Airport:

Trip Planner

Search our weather history database for the weather conditions in past years. The results will help you decide how hot, cold, wet, or windy it might be!

Date:

Astronomy

Jun. 21, 2013 Rise Set
Actual Time 6:30 AM EDT 8:31 PM EDT
Civil Twilight 6:03 AM EDT 8:58 PM EDT
Nautical Twilight 5:30 AM EDT 9:31 PM EDT
Astronomical Twilight 4:55 AM EDT 10:06 PM EDT
Moon 6:45 PM EDT (6/21) 4:38 AM EDT (6/21)
Length of Visible Light 14h 55m
Length of Day
14h 00m
Waxing Gibbous, 95% of the Moon is Illuminated
Jun 21
Waxing Gibbous
Jun 23
Full
Jun 30
Last Quarter
Jul 8
New
Jul 15
First Quarter

Hourly Weather History & Observations

Time (EDT) Temp. Heat Index Dew Point Humidity Pressure Visibility Wind Dir Wind Speed Gust Speed Precip Events Conditions
12:15 AM 69.8 °F - 66.2 °F 88% 30.11 in 10.0 mi Calm Calm - N/A   Clear
12:35 AM 69.8 °F - 66.2 °F 88% 30.11 in 10.0 mi Calm Calm - N/A   Clear
12:55 AM 69.8 °F - 66.2 °F 88% 30.11 in 10.0 mi Calm Calm - N/A   Clear
1:15 AM 69.8 °F - 64.4 °F 83% 30.10 in 10.0 mi Calm Calm - N/A   Clear
1:35 AM 69.8 °F - 66.2 °F 88% 30.09 in 10.0 mi Calm Calm - N/A   Clear
1:55 AM 69.8 °F - 64.4 °F 83% 30.09 in 10.0 mi Calm Calm - N/A   Clear
2:15 AM 69.8 °F - 64.4 °F 83% 30.08 in 10.0 mi Calm Calm - N/A   Clear
2:35 AM 69.8 °F - 66.2 °F 88% 30.09 in 10.0 mi NE 3.5 mph - N/A   Clear
2:55 AM 69.8 °F - 66.2 °F 88% 30.08 in 10.0 mi NE 4.6 mph - N/A   Clear
3:15 AM 69.8 °F - 66.2 °F 88% 30.08 in 10.0 mi Calm Calm - N/A   Clear
3:35 AM 69.8 °F - 66.2 °F 88% 30.07 in 10.0 mi East 3.5 mph - N/A   Clear
3:55 AM 69.8 °F - 66.2 °F 88% 30.07 in 10.0 mi Calm Calm - N/A   Clear
4:15 AM 69.8 °F - 64.4 °F 83% 30.07 in 10.0 mi Calm Calm - N/A   Clear
4:35 AM 69.8 °F - 64.4 °F 83% 30.07 in 10.0 mi Calm Calm - N/A   Clear
4:55 AM 69.8 °F - 64.4 °F 83% 30.07 in 10.0 mi Calm Calm - N/A   Clear
5:15 AM 69.8 °F - 64.4 °F 83% 30.07 in 10.0 mi Calm Calm - N/A   Clear
5:35 AM 69.8 °F - 64.4 °F 83% 30.07 in 10.0 mi Calm Calm - N/A   Clear
5:55 AM 69.8 °F - 64.4 °F 83% 30.07 in 9.0 mi Calm Calm - N/A   Clear
6:15 AM 69.8 °F - 64.4 °F 83% 30.08 in 10.0 mi Calm Calm - N/A   Scattered Clouds
6:35 AM 69.8 °F - 66.2 °F 88% 30.08 in 0.2 mi Calm Calm - N/A   Overcast
6:50 AM 69.8 °F - 66.2 °F 88% 30.08 in 0.1 mi Calm Calm - N/A Fog Fog
7:25 AM 69.8 °F - 66.2 °F 88% 30.09 in 0.8 mi Calm Calm - N/A   Mist
7:50 AM 71.6 °F - 66.2 °F 83% 30.10 in 0.8 mi Calm Calm - N/A   Mist
8:50 AM 73.4 °F - 69.8 °F 88% 30.12 in 2.0 mi NE 3.5 mph - N/A   Mostly Cloudy
9:10 AM 75.2 °F - 71.6 °F 89% 30.12 in 6.0 mi Calm Calm - N/A   Scattered Clouds
9:50 AM 78.8 °F - 71.6 °F 78% 30.13 in 8.0 mi North 4.6 mph - N/A   Scattered Clouds
10:50 AM 80.6 °F 83.9 °F 69.8 °F 70% 30.14 in 10.0 mi NE 3.5 mph - N/A   Scattered Clouds
11:50 AM 84.2 °F 88.4 °F 69.8 °F 62% 30.14 in 10.0 mi NNE 3.5 mph - N/A   Scattered Clouds
12:50 PM 84.2 °F 88.4 °F 69.8 °F 62% 30.12 in 10.0 mi East 3.5 mph - N/A   Scattered Clouds
1:50 PM 87.8 °F 92.6 °F 69.8 °F 55% 30.10 in 10.0 mi ENE 5.8 mph - N/A   Mostly Cloudy
2:50 PM 89.6 °F 94.7 °F 69.8 °F 52% 30.07 in 10.0 mi ENE 3.5 mph - N/A   Scattered Clouds
3:50 PM 89.6 °F 93.4 °F 68.0 °F 49% 30.07 in 10.0 mi North 5.8 mph - N/A   Mostly Cloudy
4:50 PM 75.2 °F - 66.2 °F 73% 30.08 in 2.0 mi WNW 16.1 mph 24.2 mph N/A Rain , Thunderstorm Thunderstorms and Rain
5:50 PM 73.4 °F - 69.8 °F 88% 30.14 in 2.0 mi East 4.6 mph - N/A Rain , Thunderstorm Thunderstorms and Rain
6:50 PM 73.4 °F - 69.8 °F 88% 30.11 in 3.0 mi Calm Calm - N/A Rain , Thunderstorm Light Thunderstorms and Rain
7:55 PM 73.4 °F - 69.8 °F 88% 30.12 in 10.0 mi ENE 4.6 mph - 0.05 in   Clear
8:15 PM 73.4 °F - 68.0 °F 83% 30.12 in 10.0 mi NNE 3.5 mph - N/A   Partly Cloudy
8:35 PM 71.6 °F - 68.0 °F 88% 30.11 in 10.0 mi NE 3.5 mph - N/A   Clear
8:55 PM 71.6 °F - 66.2 °F 83% 30.10 in 10.0 mi Calm Calm - N/A   Clear
9:15 PM 71.6 °F - 68.0 °F 88% 30.10 in 10.0 mi Calm Calm - N/A   Clear
9:35 PM 71.6 °F - 66.2 °F 83% 30.10 in 10.0 mi Calm Calm - N/A   Clear
9:55 PM 71.6 °F - 68.0 °F 88% 30.11 in 10.0 mi Calm Calm - N/A   Scattered Clouds
10:15 PM 71.6 °F - 68.0 °F 88% 30.11 in 10.0 mi Calm Calm - N/A   Mostly Cloudy
10:35 PM 71.6 °F - 68.0 °F 88% 30.12 in 8.0 mi Calm Calm - N/A   Mostly Cloudy
10:55 PM 71.6 °F - 68.0 °F 88% 30.12 in 10.0 mi Calm Calm - N/A   Overcast
11:15 PM 71.6 °F - 68.0 °F 88% 30.13 in 10.0 mi Calm Calm - N/A   Overcast
11:35 PM 71.6 °F - 66.2 °F 83% 30.13 in 10.0 mi Calm Calm - N/A   Mostly Cloudy
11:55 PM 71.6 °F - 66.2 °F 83% 30.12 in 9.0 mi Calm Calm - N/A   Partly Cloudy